Wetterdaten: Donnerstag, 28.01.2016
Datum Zeit Temp. A. Feuchte A. Luftdruck Regen Wind Richtung Richtung Sonnenschein ET UV Solar Taupunkt Windchill Windben Empfang
28.01.2016 00:00 2,3 C 99 % 1022,5 hPa 0,0 l/m 1,4 km/h (1 Bft) S 182 0 min 0,000 mm 0,0 UV-I 0 W/m 2,2 C 2,3 C 3,2 km/h (1 Bft) 100,00 %
28.01.2016 00:05 2,3 C 99 % 1022,5 hPa 0,0 l/m 1,8 km/h (1 Bft) S 182 0 min 0,000 mm 0,0 UV-I 0 W/m 2,2 C 2,3 C 3,2 km/h (1 Bft) 98,25 %
28.01.2016 00:10 2,4 C 99 % 1022,4 hPa 0,0 l/m 1,5 km/h (1 Bft) S 182 0 min 0,000 mm 0,0 UV-I 0 W/m 2,3 C 2,4 C 3,2 km/h (1 Bft) 100,00 %
28.01.2016 00:15 2,5 C 99 % 1022,4 hPa 0,0 l/m 1,7 km/h (1 Bft) S 182 0 min 0,000 mm 0,0 UV-I 0 W/m 2,4 C 2,5 C 4,8 km/h (1 Bft) 98,33 %
28.01.2016 00:20 2,7 C 99 % 1022,3 hPa 0,0 l/m 0,4 km/h (0 Bft) S 182 0 min 0,000 mm 0,0 UV-I 0 W/m 2,6 C 2,7 C 3,2 km/h (1 Bft) 99,11 %
28.01.2016 00:25 2,7 C 99 % 1022,3 hPa 0,0 l/m 0,6 km/h (0 Bft) S 182 0 min 0,000 mm 0,0 UV-I 0 W/m 2,6 C 2,7 C 3,2 km/h (1 Bft) 98,37 %
28.01.2016 00:30 2,6 C 99 % 1022,3 hPa 0,0 l/m 0,7 km/h (0 Bft) S 182 0 min 0,000 mm 0,0 UV-I 0 W/m 2,5 C 2,6 C 3,2 km/h (1 Bft) 98,21 %
28.01.2016 00:35 2,6 C 99 % 1022,3 hPa 0,0 l/m 2,1 km/h (1 Bft) S 182 0 min 0,000 mm 0,0 UV-I 0 W/m 2,5 C 2,6 C 3,2 km/h (1 Bft) 96,77 %
28.01.2016 00:40 2,9 C 99 % 1022,3 hPa 0,0 l/m 1,2 km/h (1 Bft) SO 140 0 min 0,000 mm 0,0 UV-I 0 W/m 2,8 C 2,9 C 6,4 km/h (2 Bft) 95,50 %
28.01.2016 00:45 3,4 C 99 % 1022,3 hPa 0,0 l/m 2,0 km/h (1 Bft) W 261 0 min 0,000 mm 0,0 UV-I 0 W/m 3,3 C 3,4 C 4,8 km/h (1 Bft) 97,32 %
28.01.2016 00:50 2,8 C 99 % 1022,2 hPa 0,0 l/m 3,1 km/h (1 Bft) S 171 0 min 0,000 mm 0,0 UV-I 0 W/m 2,7 C 2,8 C 6,4 km/h (2 Bft) 96,85 %
28.01.2016 00:55 2,4 C 99 % 1022,2 hPa 0,0 l/m 4,1 km/h (1 Bft) S 178 0 min 0,000 mm 0,0 UV-I 0 W/m 2,3 C 2,4 C 6,4 km/h (2 Bft) 95,61 %
28.01.2016 01:00 2,4 C 99 % 1022,1 hPa 0,0 l/m 2,8 km/h (1 Bft) S 178 0 min 0,000 mm 0,0 UV-I 0 W/m 2,3 C 2,4 C 3,2 km/h (1 Bft) 97,25 %
28.01.2016 01:05 2,7 C 99 % 1022,1 hPa 0,0 l/m 2,4 km/h (1 Bft) S 178 0 min 0,000 mm 0,0 UV-I 0 W/m 2,6 C 2,7 C 3,2 km/h (1 Bft) 96,77 %
28.01.2016 01:10 2,8 C 99 % 1022,1 hPa 0,0 l/m 1,5 km/h (1 Bft) S 178 0 min 0,000 mm 0,0 UV-I 0 W/m 2,7 C 2,8 C 3,2 km/h (1 Bft) 100,00 %
28.01.2016 01:15 2,8 C 99 % 1022,1 hPa 0,0 l/m 0,6 km/h (0 Bft) S 178 0 min 0,000 mm 0,0 UV-I 0 W/m 2,7 C 2,8 C 3,2 km/h (1 Bft) 99,19 %
28.01.2016 01:20 2,8 C 99 % 1022,1 hPa 0,0 l/m 1,1 km/h (1 Bft) S 178 0 min 0,000 mm 0,0 UV-I 0 W/m 2,7 C 2,8 C 1,6 km/h (1 Bft) 98,20 %
28.01.2016 01:25 2,9 C 99 % 1022,1 hPa 0,0 l/m 1,5 km/h (1 Bft) S 178 0 min 0,000 mm 0,0 UV-I 0 W/m 2,8 C 2,9 C 3,2 km/h (1 Bft) 100,00 %
28.01.2016 01:30 2,9 C 99 % 1022,0 hPa 0,0 l/m 1,3 km/h (1 Bft) S 178 0 min 0,000 mm 0,0 UV-I 0 W/m 2,8 C 2,9 C 3,2 km/h (1 Bft) 98,26 %
28.01.2016 01:35 2,8 C 99 % 1022,0 hPa 0,0 l/m 0,6 km/h (0 Bft) S 178 0 min 0,000 mm 0,0 UV-I 0 W/m 2,7 C 2,8 C 3,2 km/h (1 Bft) 98,25 %
28.01.2016 01:40 2,8 C 99 % 1022,0 hPa 0,0 l/m 0,4 km/h (0 Bft) S 178 0 min 0,000 mm 0,0 UV-I 0 W/m 2,7 C 2,8 C 3,2 km/h (1 Bft) 98,31 %
28.01.2016 01:45 2,9 C 99 % 1022,0 hPa 0,0 l/m 0,2 km/h (0 Bft) S 178 0 min 0,000 mm 0,0 UV-I 0 W/m 2,8 C 2,9 C 1,6 km/h (1 Bft) 99,19 %
28.01.2016 01:50 2,9 C 99 % 1022,0 hPa 0,0 l/m 0,9 km/h (0 Bft) S 177 0 min 0,000 mm 0,0 UV-I 0 W/m 2,8 C 2,9 C 3,2 km/h (1 Bft) 99,08 %
28.01.2016 01:55 3,2 C 99 % 1021,9 hPa 0,0 l/m 3,5 km/h (1 Bft) O-NO 66 0 min 0,000 mm 0,0 UV-I 0 W/m 3,1 C 3,2 C 4,8 km/h (1 Bft) 99,19 %
28.01.2016 02:00 3,2 C 99 % 1021,9 hPa 0,0 l/m 3,2 km/h (1 Bft) O-NO 61 0 min 0,000 mm 0,0 UV-I 0 W/m 3,1 C 3,2 C 4,8 km/h (1 Bft) 100,00 %
28.01.2016 02:05 3,2 C 99 % 1021,9 hPa 0,0 l/m 2,7 km/h (1 Bft) O-NO 67 0 min 0,000 mm 0,0 UV-I 0 W/m 3,1 C 3,2 C 4,8 km/h (1 Bft) 99,13 %
28.01.2016 02:10 3,2 C 99 % 1021,9 hPa 0,0 l/m 2,9 km/h (1 Bft) NO 56 0 min 0,000 mm 0,0 UV-I 0 W/m 3,1 C 3,2 C 4,8 km/h (1 Bft) 96,69 %
28.01.2016 02:15 3,2 C 99 % 1021,8 hPa 0,0 l/m 2,6 km/h (1 Bft) NO 56 0 min 0,000 mm 0,0 UV-I 0 W/m 3,1 C 3,2 C 4,8 km/h (1 Bft) 99,12 %
28.01.2016 02:20 3,1 C 98 % 1021,8 hPa 0,0 l/m 1,2 km/h (1 Bft) NO 56 0 min 0,000 mm 0,0 UV-I 0 W/m 2,8 C 3,1 C 3,2 km/h (1 Bft) 100,00 %
28.01.2016 02:25 2,8 C 98 % 1021,8 hPa 0,0 l/m 1,3 km/h (1 Bft) NO 56 0 min 0,000 mm 0,0 UV-I 0 W/m 2,5 C 2,8 C 3,2 km/h (1 Bft) 99,17 %
28.01.2016 02:30 3,1 C 98 % 1021,9 hPa 0,0 l/m 2,4 km/h (1 Bft) NO 56 0 min 0,000 mm 0,0 UV-I 0 W/m 2,8 C 3,1 C 3,2 km/h (1 Bft) 99,10 %
28.01.2016 02:35 2,9 C 98 % 1021,8 hPa 0,0 l/m 3,4 km/h (1 Bft) NO 56 0 min 0,000 mm 0,0 UV-I 0 W/m 2,6 C 2,9 C 4,8 km/h (1 Bft) 100,00 %
28.01.2016 02:40 2,8 C 98 % 1021,7 hPa 0,0 l/m 3,7 km/h (1 Bft) N-NO 26 0 min 0,000 mm 0,0 UV-I 0 W/m 2,5 C 2,8 C 6,4 km/h (2 Bft) 100,00 %
28.01.2016 02:45 2,7 C 98 % 1021,7 hPa 0,0 l/m 2,1 km/h (1 Bft) N-NO 32 0 min 0,000 mm 0,0 UV-I 0 W/m 2,4 C 2,7 C 6,4 km/h (2 Bft) 95,54 %
28.01.2016 02:50 2,8 C 98 % 1021,6 hPa 0,0 l/m 2,4 km/h (1 Bft) O-NO 77 0 min 0,000 mm 0,0 UV-I 0 W/m 2,5 C 2,8 C 6,4 km/h (2 Bft) 94,64 %
28.01.2016 02:55 2,6 C 98 % 1021,6 hPa 0,0 l/m 2,6 km/h (1 Bft) O 93 0 min 0,000 mm 0,0 UV-I 0 W/m 2,3 C 2,6 C 4,8 km/h (1 Bft) 96,75 %
28.01.2016 03:00 2,6 C 98 % 1021,6 hPa 0,0 l/m 1,4 km/h (1 Bft) O 93 0 min 0,000 mm 0,0 UV-I 0 W/m 2,3 C 2,6 C 3,2 km/h (1 Bft) 96,12 %
28.01.2016 03:05 2,6 C 98 % 1021,5 hPa 0,0 l/m 0,7 km/h (0 Bft) O 93 0 min 0,000 mm 0,0 UV-I 0 W/m 2,3 C 2,6 C 3,2 km/h (1 Bft) 96,85 %
28.01.2016 03:10 2,5 C 98 % 1021,4 hPa 0,0 l/m 2,3 km/h (1 Bft) S-SW 205 0 min 0,000 mm 0,0 UV-I 0 W/m 2,2 C 2,5 C 6,4 km/h (2 Bft) 97,09 %
28.01.2016 03:15 2,3 C 98 % 1021,4 hPa 0,0 l/m 1,0 km/h (0 Bft) S-SW 205 0 min 0,000 mm 0,0 UV-I 0 W/m 2,0 C 2,3 C 3,2 km/h (1 Bft) 96,38 %
28.01.2016 03:20 2,3 C 98 % 1021,4 hPa 0,0 l/m 0,1 km/h (0 Bft) S-SW 205 0 min 0,000 mm 0,0 UV-I 0 W/m 2,0 C 2,3 C 1,6 km/h (1 Bft) 97,94 %
28.01.2016 03:25 2,4 C 98 % 1021,4 hPa 0,0 l/m 0,1 km/h (0 Bft) S-SW 205 0 min 0,000 mm 0,0 UV-I 0 W/m 2,1 C 2,4 C 1,6 km/h (1 Bft) 98,48 %
28.01.2016 03:30 2,3 C 98 % 1021,4 hPa 0,0 l/m 0,9 km/h (0 Bft) S-SW 205 0 min 0,000 mm 0,0 UV-I 0 W/m 2,0 C 2,3 C 4,8 km/h (1 Bft) 100,00 %
28.01.2016 03:35 2,4 C 98 % 1021,4 hPa 0,0 l/m 1,0 km/h (0 Bft) SW 215 0 min 0,000 mm 0,0 UV-I 0 W/m 2,1 C 2,4 C 3,2 km/h (1 Bft) 97,56 %
28.01.2016 03:40 2,2 C 98 % 1021,4 hPa 0,0 l/m 1,2 km/h (1 Bft) SW 215 0 min 0,000 mm 0,0 UV-I 0 W/m 1,9 C 2,2 C 4,8 km/h (1 Bft) 100,00 %
28.01.2016 03:45 2,2 C 98 % 1021,4 hPa 0,0 l/m 0,2 km/h (0 Bft) SW 215 0 min 0,000 mm 0,0 UV-I 0 W/m 1,9 C 2,2 C 1,6 km/h (1 Bft) 100,00 %
28.01.2016 03:50 2,3 C 98 % 1021,4 hPa 0,0 l/m 1,0 km/h (0 Bft) W-NW 298 0 min 0,000 mm 0,0 UV-I 0 W/m 2,0 C 2,3 C 3,2 km/h (1 Bft) 98,33 %
28.01.2016 03:55 2,2 C 98 % 1021,3 hPa 0,0 l/m 0,0 km/h (0 Bft) W-NW 298 0 min 0,000 mm 0,0 UV-I 0 W/m 1,9 C 2,2 C 0,0 km/h (0 Bft) 99,19 %
28.01.2016 04:00 2,1 C 98 % 1021,2 hPa 0,0 l/m 0,3 km/h (0 Bft) W-NW 298 0 min 0,000 mm 0,0 UV-I 0 W/m 1,8 C 2,1 C 3,2 km/h (1 Bft) 100,00 %
28.01.2016 04:05 2,0 C 98 % 1021,2 hPa 0,0 l/m 0,7 km/h (0 Bft) W-NW 298 0 min 0,000 mm 0,0 UV-I 0 W/m 1,7 C 2,0 C 3,2 km/h (1 Bft) 98,67 %
28.01.2016 04:10 2,1 C 98 % 1021,2 hPa 0,0 l/m 1,3 km/h (1 Bft) NO 46 0 min 0,000 mm 0,0 UV-I 0 W/m 1,8 C 2,1 C 3,2 km/h (1 Bft) 100,00 %
28.01.2016 04:15 2,1 C 98 % 1021,2 hPa 0,0 l/m 1,7 km/h (1 Bft) NO 46 0 min 0,000 mm 0,0 UV-I 0 W/m 1,8 C 2,1 C 4,8 km/h (1 Bft) 100,00 %
28.01.2016 04:20 1,9 C 98 % 1021,2 hPa 0,0 l/m 0,3 km/h (0 Bft) NO 46 0 min 0,000 mm 0,0 UV-I 0 W/m 1,6 C 1,9 C 1,6 km/h (1 Bft) 99,11 %
28.01.2016 04:25 1,8 C 98 % 1021,1 hPa 0,0 l/m 1,0 km/h (0 Bft) NO 46 0 min 0,000 mm 0,0 UV-I 0 W/m 1,5 C 1,8 C 3,2 km/h (1 Bft) 99,19 %
28.01.2016 04:30 1,8 C 98 % 1021,1 hPa 0,0 l/m 0,5 km/h (0 Bft) O-SO 123 0 min 0,000 mm 0,0 UV-I 0 W/m 1,5 C 1,8 C 1,6 km/h (1 Bft) 98,33 %
28.01.2016 04:35 1,7 C 98 % 1021,0 hPa 0,0 l/m 1,4 km/h (1 Bft) SO 138 0 min 0,000 mm 0,0 UV-I 0 W/m 1,4 C 1,7 C 4,8 km/h (1 Bft) 100,00 %
28.01.2016 04:40 1,7 C 98 % 1021,0 hPa 0,0 l/m 0,6 km/h (0 Bft) SO 138 0 min 0,000 mm 0,0 UV-I 0 W/m 1,4 C 1,7 C 3,2 km/h (1 Bft) 99,19 %
28.01.2016 04:45 1,6 C 98 % 1020,9 hPa 0,0 l/m 0,9 km/h (0 Bft) SO 138 0 min 0,000 mm 0,0 UV-I 0 W/m 1,3 C 1,6 C 3,2 km/h (1 Bft) 100,00 %
28.01.2016 04:50 1,3 C 98 % 1020,9 hPa 0,0 l/m 1,7 km/h (1 Bft) SO 138 0 min 0,000 mm 0,0 UV-I 0 W/m 1,0 C 1,3 C 3,2 km/h (1 Bft) 97,84 %
28.01.2016 04:55 1,1 C 98 % 1020,9 hPa 0,0 l/m 2,1 km/h (1 Bft) SO 138 0 min 0,000 mm 0,0 UV-I 0 W/m 0,8 C 1,1 C 3,2 km/h (1 Bft) 98,20 %
28.01.2016 05:00 1,2 C 98 % 1020,9 hPa 0,0 l/m 1,8 km/h (1 Bft) SW 229 0 min 0,000 mm 0,0 UV-I 0 W/m 0,9 C 1,2 C 4,8 km/h (1 Bft) 94,92 %
28.01.2016 05:05 1,4 C 98 % 1020,9 hPa 0,0 l/m 0,7 km/h (0 Bft) SW 229 0 min 0,000 mm 0,0 UV-I 0 W/m 1,1 C 1,4 C 3,2 km/h (1 Bft) 98,26 %
28.01.2016 05:10 1,5 C 98 % 1021,0 hPa 0,0 l/m 0,1 km/h (0 Bft) SW 229 0 min 0,000 mm 0,0 UV-I 0 W/m 1,2 C 1,5 C 1,6 km/h (1 Bft) 96,67 %
28.01.2016 05:15 1,4 C 98 % 1021,0 hPa 0,0 l/m 0,0 km/h (0 Bft) SW 229 0 min 0,000 mm 0,0 UV-I 0 W/m 1,1 C 1,4 C 0,0 km/h (0 Bft) 96,00 %
28.01.2016 05:20 1,4 C 98 % 1021,0 hPa 0,0 l/m 0,2 km/h (0 Bft) SW 229 0 min 0,000 mm 0,0 UV-I 0 W/m 1,1 C 1,4 C 1,6 km/h (1 Bft) 97,16 %
28.01.2016 05:25 1,6 C 99 % 1020,9 hPa 0,0 l/m 0,6 km/h (0 Bft) SW 229 0 min 0,000 mm 0,0 UV-I 0 W/m 1,5 C 1,6 C 3,2 km/h (1 Bft) 96,52 %
28.01.2016 05:30 1,6 C 99 % 1020,9 hPa 0,0 l/m 0,2 km/h (0 Bft) SW 229 0 min 0,000 mm 0,0 UV-I 0 W/m 1,5 C 1,6 C 1,6 km/h (1 Bft) 98,17 %
28.01.2016 05:35 1,7 C 99 % 1021,0 hPa 0,0 l/m 0,0 km/h (0 Bft) SW 229 0 min 0,000 mm 0,0 UV-I 0 W/m 1,6 C 1,7 C 1,6 km/h (1 Bft) 96,83 %
28.01.2016 05:40 2,1 C 99 % 1021,0 hPa 0,0 l/m 0,0 km/h (0 Bft) SW 229 0 min 0,000 mm 0,0 UV-I 0 W/m 2,0 C 2,1 C 0,0 km/h (0 Bft) 98,17 %
28.01.2016 05:45 2,0 C 99 % 1020,9 hPa 0,0 l/m 0,5 km/h (0 Bft) SW 229 0 min 0,000 mm 0,0 UV-I 0 W/m 1,9 C 2,0 C 3,2 km/h (1 Bft) 99,17 %
28.01.2016 05:50 1,7 C 99 % 1021,0 hPa 0,0 l/m 2,1 km/h (1 Bft) SW 229 0 min 0,000 mm 0,0 UV-I 0 W/m 1,6 C 1,7 C 3,2 km/h (1 Bft) 98,37 %
28.01.2016 05:55 1,8 C 99 % 1021,1 hPa 0,0 l/m 1,0 km/h (0 Bft) SW 229 0 min 0,000 mm 0,0 UV-I 0 W/m 1,7 C 1,8 C 3,2 km/h (1 Bft) 100,00 %
28.01.2016 06:00 1,8 C 99 % 1021,1 hPa 0,0 l/m 0,8 km/h (0 Bft) SW 229 0 min 0,000 mm 0,0 UV-I 0 W/m 1,7 C 1,8 C 3,2 km/h (1 Bft) 97,25 %
28.01.2016 06:05 1,8 C 99 % 1021,1 hPa 0,0 l/m 0,1 km/h (0 Bft) SW 229 0 min 0,000 mm 0,0 UV-I 0 W/m 1,7 C 1,8 C 1,6 km/h (1 Bft) 98,37 %
28.01.2016 06:10 1,9 C 99 % 1021,2 hPa 0,0 l/m 0,2 km/h (0 Bft) SW 229 0 min 0,000 mm 0,0 UV-I 0 W/m 1,8 C 1,9 C 1,6 km/h (1 Bft) 100,00 %
28.01.2016 06:15 1,9 C 99 % 1021,4 hPa 0,0 l/m 0,2 km/h (0 Bft) SW 229 0 min 0,000 mm 0,0 UV-I 0 W/m 1,8 C 1,9 C 1,6 km/h (1 Bft) 99,21 %
28.01.2016 06:20 1,9 C 99 % 1021,6 hPa 0,0 l/m 0,9 km/h (0 Bft) SW 229 0 min 0,000 mm 0,0 UV-I 0 W/m 1,8 C 1,9 C 3,2 km/h (1 Bft) 98,21 %
28.01.2016 06:25 1,9 C 99 % 1021,7 hPa 0,0 l/m 1,3 km/h (1 Bft) S-SW 199 0 min 0,000 mm 0,0 UV-I 0 W/m 1,8 C 1,9 C 3,2 km/h (1 Bft) 100,00 %
28.01.2016 06:30 2,0 C 99 % 1021,5 hPa 0,0 l/m 2,4 km/h (1 Bft) S-SO 157 0 min 0,000 mm 0,0 UV-I 0 W/m 1,9 C 2,0 C 4,8 km/h (1 Bft) 100,00 %
28.01.2016 06:35 2,2 C 99 % 1021,6 hPa 0,0 l/m 3,3 km/h (1 Bft) W-SW 238 0 min 0,000 mm 0,0 UV-I 0 W/m 2,1 C 2,2 C 6,4 km/h (2 Bft) 99,15 %
28.01.2016 06:40 2,3 C 99 % 1021,8 hPa 0,0 l/m 2,6 km/h (1 Bft) W-NW 290 0 min 0,000 mm 0,0 UV-I 0 W/m 2,2 C 2,3 C 9,7 km/h (2 Bft) 100,00 %
28.01.2016 06:45 2,1 C 99 % 1021,9 hPa 0,0 l/m 0,8 km/h (0 Bft) W-NW 290 0 min 0,000 mm 0,0 UV-I 0 W/m 2,0 C 2,1 C 3,2 km/h (1 Bft) 99,19 %
28.01.2016 06:50 2,2 C 99 % 1021,9 hPa 0,0 l/m 1,0 km/h (0 Bft) W-NW 292 0 min 0,000 mm 0,0 UV-I 0 W/m 2,1 C 2,2 C 4,8 km/h (1 Bft) 100,00 %
28.01.2016 06:55 2,2 C 99 % 1021,8 hPa 0,0 l/m 0,8 km/h (0 Bft) S-SO 167 0 min 0,000 mm 0,0 UV-I 0 W/m 2,1 C 2,2 C 4,8 km/h (1 Bft) 98,25 %
28.01.2016 07:00 2,2 C 99 % 1021,8 hPa 0,0 l/m 2,5 km/h (1 Bft) S 171 0 min 0,000 mm 0,0 UV-I 0 W/m 2,1 C 2,2 C 8,0 km/h (2 Bft) 100,00 %
28.01.2016 07:05 2,6 C 99 % 1021,9 hPa 0,0 l/m 3,2 km/h (1 Bft) S-SW 207 0 min 0,000 mm 0,0 UV-I 0 W/m 2,5 C 2,6 C 6,4 km/h (2 Bft) 100,00 %
28.01.2016 07:10 2,6 C 99 % 1022,1 hPa 0,0 l/m 5,4 km/h (1 Bft) S 188 0 min 0,000 mm 0,0 UV-I 0 W/m 2,5 C 2,6 C 8,0 km/h (2 Bft) 98,11 %
28.01.2016 07:15 2,7 C 99 % 1022,2 hPa 0,0 l/m 6,5 km/h (2 Bft) S-SW 213 0 min 0,000 mm 0,0 UV-I 0 W/m 2,6 C 2,6 C 9,7 km/h (2 Bft) 100,00 %
28.01.2016 07:20 2,8 C 99 % 1022,2 hPa 0,0 l/m 8,6 km/h (2 Bft) S-SW 198 0 min 0,000 mm 0,0 UV-I 0 W/m 2,7 C 0,8 C 12,9 km/h (3 Bft) 97,17 %
28.01.2016 07:25 3,1 C 99 % 1022,3 hPa 0,0 l/m 7,9 km/h (2 Bft) S 187 0 min 0,000 mm 0,0 UV-I 0 W/m 3,0 C 1,7 C 11,3 km/h (2 Bft) 95,93 %
28.01.2016 07:30 3,4 C 99 % 1022,4 hPa 0,0 l/m 7,6 km/h (2 Bft) S-SW 196 0 min 0,000 mm 0,0 UV-I 0 W/m 3,3 C 2,3 C 11,3 km/h (2 Bft) 98,31 %
28.01.2016 07:35 3,6 C 97 % 1022,4 hPa 0,0 l/m 5,4 km/h (1 Bft) S-SW 205 0 min 0,000 mm 0,0 UV-I 0 W/m 3,2 C 3,6 C 11,3 km/h (2 Bft) 96,67 %
28.01.2016 07:40 3,8 C 95 % 1022,5 hPa 0,0 l/m 4,0 km/h (1 Bft) S 186 0 min 0,000 mm 0,0 UV-I 0 W/m 3,1 C 3,8 C 8,0 km/h (2 Bft) 97,25 %
28.01.2016 07:45 4,2 C 93 % 1022,5 hPa 0,0 l/m 8,0 km/h (2 Bft) S-SW 196 0 min 0,000 mm 0,0 UV-I 5 W/m 3,2 C 2,8 C 11,3 km/h (2 Bft) 97,39 %
28.01.2016 07:50 5,3 C 90 % 1022,5 hPa 0,0 l/m 9,7 km/h (2 Bft) S 175 0 min 0,000 mm 0,0 UV-I 7 W/m 3,8 C 2,6 C 19,3 km/h (3 Bft) 96,75 %
28.01.2016 07:55 6,2 C 86 % 1022,5 hPa 0,0 l/m 13,4 km/h (3 Bft) S-SW 199 0 min 0,000 mm 0,0 UV-I 11 W/m 4,0 C 1,4 C 20,9 km/h (4 Bft) 98,26 %
28.01.2016 08:00 7,1 C 81 % 1022,5 hPa 0,0 l/m 15,9 km/h (3 Bft) S-SW 205 0 min 0,000 mm 0,0 UV-I 13 W/m 4,1 C 1,2 C 22,5 km/h (4 Bft) 99,17 %
28.01.2016 08:05 7,3 C 80 % 1022,6 hPa 0,0 l/m 15,7 km/h (3 Bft) S-SW 207 0 min 0,000 mm 0,0 UV-I 16 W/m 4,1 C 1,5 C 22,5 km/h (4 Bft) 94,87 %
28.01.2016 08:15 8,4 C 74 % 1022,7 hPa 0,0 l/m 16,7 km/h (3 Bft) S-SW 207 0 min 0,000 mm 0,0 UV-I 28 W/m 4,0 C 2,5 C 25,7 km/h (4 Bft) 98,73 %
28.01.2016 08:20 9,0 C 72 % 1022,8 hPa 0,0 l/m 17,4 km/h (3 Bft) SW 215 0 min 0,000 mm 0,0 UV-I 28 W/m 4,2 C 2,9 C 25,7 km/h (4 Bft) 100,00 %
28.01.2016 08:25 9,7 C 69 % 1022,8 hPa 0,0 l/m 16,7 km/h (3 Bft) SW 236 0 min 0,000 mm 0,0 UV-I 34 W/m 4,3 C 4,1 C 29,0 km/h (5 Bft) 99,15 %
28.01.2016 08:30 10,2 C 67 % 1022,9 hPa 0,0 l/m 16,2 km/h (3 Bft) S 189 0 min 0,000 mm 0,0 UV-I 39 W/m 4,4 C 4,9 C 25,7 km/h (4 Bft) 97,37 %
28.01.2016 08:35 10,4 C 65 % 1022,9 hPa 0,0 l/m 16,1 km/h (3 Bft) S 174 0 min 0,000 mm 0,0 UV-I 35 W/m 4,1 C 5,2 C 25,7 km/h (4 Bft) 99,17 %
28.01.2016 08:40 10,7 C 64 % 1022,9 hPa 0,0 l/m 14,9 km/h (3 Bft) SW 217 0 min 0,000 mm 0,0 UV-I 28 W/m 4,2 C 6,0 C 25,7 km/h (4 Bft) 96,43 %
28.01.2016 08:45 10,6 C 64 % 1022,9 hPa 0,0 l/m 14,5 km/h (3 Bft) S 185 0 min 0,000 mm 0,0 UV-I 23 W/m 4,1 C 6,1 C 22,5 km/h (4 Bft) 100,00 %
28.01.2016 08:50 10,6 C 64 % 1023,1 hPa 0,0 l/m 13,1 km/h (3 Bft) S 180 0 min 0,000 mm 0,0 UV-I 17 W/m 4,1 C 6,7 C 20,9 km/h (4 Bft) 99,08 %
28.01.2016 08:55 10,7 C 64 % 1023,2 hPa 0,0 l/m 12,6 km/h (3 Bft) SW 227 0 min 0,000 mm 0,0 UV-I 13 W/m 4,2 C 7,0 C 24,1 km/h (4 Bft) 99,12 %
28.01.2016 09:00 10,9 C 63 % 1023,2 hPa 0,0 l/m 13,4 km/h (3 Bft) S-SW 202 0 min 0,051 mm 0,0 UV-I 14 W/m 4,1 C 6,9 C 25,7 km/h (4 Bft) 100,00 %
28.01.2016 09:05 11,1 C 62 % 1023,2 hPa 0,0 l/m 13,9 km/h (3 Bft) SW 236 0 min 0,000 mm 0,0 UV-I 22 W/m 4,1 C 6,9 C 22,5 km/h (4 Bft) 99,11 %
28.01.2016 09:10 11,1 C 62 % 1023,3 hPa 0,0 l/m 13,7 km/h (3 Bft) S 184 0 min 0,000 mm 0,0 UV-I 26 W/m 4,1 C 7,0 C 24,1 km/h (4 Bft) 100,00 %
28.01.2016 09:15 11,3 C 61 % 1023,3 hPa 0,0 l/m 15,8 km/h (3 Bft) W-SW 248 0 min 0,000 mm 0,0 UV-I 32 W/m 4,1 C 6,4 C 25,7 km/h (4 Bft) 98,39 %
28.01.2016 09:20 11,5 C 60 % 1023,4 hPa 0,0 l/m 13,0 km/h (3 Bft) S-SW 202 0 min 0,000 mm 0,0 UV-I 44 W/m 4,0 C 7,8 C 20,9 km/h (4 Bft) 98,97 %
28.01.2016 09:25 11,4 C 61 % 1023,4 hPa 0,0 l/m 12,1 km/h (2 Bft) SW 215 0 min 0,000 mm 0,0 UV-I 62 W/m 4,2 C 8,1 C 19,3 km/h (3 Bft) 100,00 %
28.01.2016 09:30 11,4 C 61 % 1023,5 hPa 0,0 l/m 14,6 km/h (3 Bft) S-SW 201 0 min 0,000 mm 0,0 UV-I 86 W/m 4,2 C 7,0 C 25,7 km/h (4 Bft) 98,31 %
28.01.2016 09:35 11,4 C 60 % 1023,4 hPa 0,0 l/m 14,9 km/h (3 Bft) SW 229 0 min 0,000 mm 0,0 UV-I 92 W/m 3,9 C 6,9 C 25,7 km/h (4 Bft) 97,50 %
28.01.2016 09:40 11,4 C 61 % 1023,5 hPa 0,0 l/m 13,9 km/h (3 Bft) S-SW 213 0 min 0,000 mm 0,0 UV-I 89 W/m 4,2 C 7,3 C 24,1 km/h (4 Bft) 95,28 %
28.01.2016 09:45 11,6 C 60 % 1023,5 hPa 0,0 l/m 13,6 km/h (3 Bft) S-SW 209 0 min 0,000 mm 0,0 UV-I 86 W/m 4,1 C 7,6 C 20,9 km/h (4 Bft) 97,64 %
28.01.2016 09:50 11,6 C 60 % 1023,6 hPa 0,0 l/m 14,0 km/h (3 Bft) S 188 0 min 0,000 mm 0,0 UV-I 85 W/m 4,1 C 7,5 C 24,1 km/h (4 Bft) 97,37 %
28.01.2016 09:55 11,7 C 59 % 1023,6 hPa 0,0 l/m 12,5 km/h (3 Bft) W-SW 242 0 min 0,000 mm 0,0 UV-I 75 W/m 4,0 C 8,2 C 20,9 km/h (4 Bft) 97,32 %
28.01.2016 10:00 11,7 C 59 % 1023,7 hPa 0,0 l/m 12,8 km/h (3 Bft) S 188 0 min 0,101 mm 0,0 UV-I 64 W/m 4,0 C 8,1 C 20,9 km/h (4 Bft) 96,85 %
28.01.2016 10:05 11,7 C 60 % 1023,7 hPa 0,0 l/m 13,4 km/h (3 Bft) S 186 0 min 0,000 mm 0,0 UV-I 65 W/m 4,2 C 7,8 C 20,9 km/h (4 Bft) 100,00 %
28.01.2016 10:10 11,7 C 59 % 1023,8 hPa 0,0 l/m 12,1 km/h (2 Bft) SW 230 0 min 0,000 mm 0,0 UV-I 62 W/m 4,0 C 8,4 C 20,9 km/h (4 Bft) 98,29 %
28.01.2016 10:15 11,7 C 59 % 1023,8 hPa 0,0 l/m 11,5 km/h (2 Bft) SW 225 0 min 0,000 mm 0,0 UV-I 59 W/m 4,0 C 8,7 C 20,9 km/h (4 Bft) 98,33 %
28.01.2016 10:20 11,7 C 59 % 1023,9 hPa 0,0 l/m 11,4 km/h (2 Bft) S-SW 197 0 min 0,000 mm 0,0 UV-I 60 W/m 4,0 C 8,8 C 19,3 km/h (3 Bft) 100,00 %
28.01.2016 10:25 11,8 C 58 % 1023,9 hPa 0,0 l/m 12,4 km/h (3 Bft) S 181 0 min 0,000 mm 0,0 UV-I 69 W/m 3,8 C 8,4 C 17,7 km/h (3 Bft) 99,08 %
28.01.2016 10:30 11,9 C 58 % 1024,0 hPa 0,0 l/m 12,3 km/h (3 Bft) S-SW 204 0 min 0,000 mm 0,0 UV-I 81 W/m 3,9 C 8,6 C 19,3 km/h (3 Bft) 99,19 %
28.01.2016 10:35 11,9 C 58 % 1024,0 hPa 0,0 l/m 10,4 km/h (2 Bft) S-SW 207 0 min 0,000 mm 0,0 UV-I 101 W/m 3,9 C 9,5 C 17,7 km/h (3 Bft) 100,00 %
28.01.2016 10:40 11,9 C 59 % 1024,1 hPa 0,0 l/m 10,1 km/h (2 Bft) SW 223 0 min 0,000 mm 0,0 UV-I 84 W/m 4,1 C 9,6 C 17,7 km/h (3 Bft) 100,00 %
28.01.2016 10:45 11,8 C 59 % 1024,2 hPa 0,0 l/m 11,9 km/h (2 Bft) SW 227 0 min 0,000 mm 0,0 UV-I 66 W/m 4,1 C 8,6 C 19,3 km/h (3 Bft) 98,29 %
28.01.2016 10:50 11,9 C 59 % 1024,1 hPa 0,0 l/m 11,7 km/h (2 Bft) SW 227 0 min 0,000 mm 0,0 UV-I 72 W/m 4,1 C 8,8 C 19,3 km/h (3 Bft) 99,15 %
28.01.2016 10:55 12,0 C 58 % 1024,2 hPa 0,0 l/m 11,3 km/h (2 Bft) SW 217 0 min 0,000 mm 0,0 UV-I 77 W/m 4,0 C 9,1 C 19,3 km/h (3 Bft) 100,00 %
28.01.2016 11:00 12,1 C 59 % 1024,2 hPa 0,0 l/m 10,4 km/h (2 Bft) S-SW 213 0 min 0,102 mm 0,3 UV-I 88 W/m 4,3 C 9,7 C 17,7 km/h (3 Bft) 100,00 %
28.01.2016 11:05 12,1 C 58 % 1024,2 hPa 0,0 l/m 10,7 km/h (2 Bft) S-SW 193 0 min 0,000 mm 0,7 UV-I 119 W/m 4,1 C 9,6 C 17,7 km/h (3 Bft) 100,00 %
28.01.2016 11:10 12,2 C 59 % 1024,2 hPa 0,0 l/m 11,1 km/h (2 Bft) SW 227 0 min 0,000 mm 0,7 UV-I 134 W/m 4,4 C 9,5 C 19,3 km/h (3 Bft) 100,00 %
28.01.2016 11:15 12,3 C 58 % 1024,2 hPa 0,0 l/m 10,5 km/h (2 Bft) SW 229 0 min 0,000 mm 0,8 UV-I 157 W/m 4,3 C 9,9 C 17,7 km/h (3 Bft) 97,17 %
28.01.2016 11:20 12,4 C 58 % 1024,1 hPa 0,0 l/m 12,4 km/h (3 Bft) W-SW 248 0 min 0,000 mm 0,8 UV-I 179 W/m 4,4 C 9,1 C 25,7 km/h (4 Bft) 100,00 %
28.01.2016 11:25 12,8 C 55 % 1024,2 hPa 0,0 l/m 13,8 km/h (3 Bft) W-SW 242 0 min 0,000 mm 0,7 UV-I 171 W/m 4,0 C 9,0 C 24,1 km/h (4 Bft) 100,00 %
28.01.2016 11:30 12,7 C 57 % 1024,2 hPa 0,0 l/m 11,7 km/h (2 Bft) S 188 0 min 0,000 mm 0,6 UV-I 137 W/m 4,4 C 9,8 C 19,3 km/h (3 Bft) 98,17 %
28.01.2016 11:35 12,7 C 57 % 1024,2 hPa 0,0 l/m 13,1 km/h (3 Bft) S-SW 205 0 min 0,000 mm 0,7 UV-I 131 W/m 4,4 C 9,2 C 20,9 km/h (4 Bft) 97,46 %
28.01.2016 11:40 12,8 C 55 % 1024,3 hPa 0,0 l/m 12,0 km/h (2 Bft) SW 224 0 min 0,000 mm 0,7 UV-I 144 W/m 4,0 C 9,7 C 17,7 km/h (3 Bft) 97,56 %
28.01.2016 11:45 12,9 C 54 % 1024,3 hPa 0,0 l/m 12,1 km/h (2 Bft) W-SW 238 0 min 0,000 mm 0,7 UV-I 139 W/m 3,8 C 9,8 C 22,5 km/h (4 Bft) 96,33 %
28.01.2016 11:50 13,2 C 53 % 1024,2 hPa 0,0 l/m 14,0 km/h (3 Bft) SW 236 0 min 0,000 mm 0,8 UV-I 175 W/m 3,8 C 9,4 C 25,7 km/h (4 Bft) 96,49 %
28.01.2016 11:55 13,2 C 52 % 1024,2 hPa 0,0 l/m 14,4 km/h (3 Bft) SW 226 0 min 0,000 mm 0,6 UV-I 156 W/m 3,6 C 9,2 C 25,7 km/h (4 Bft) 97,52 %
28.01.2016 12:00 13,2 C 54 % 1024,3 hPa 0,0 l/m 12,7 km/h (3 Bft) SW 229 0 min 0,127 mm 0,7 UV-I 136 W/m 4,1 C 9,9 C 20,9 km/h (4 Bft) 97,52 %
28.01.2016 12:05 13,3 C 52 % 1024,2 hPa 0,0 l/m 13,2 km/h (3 Bft) SW 215 0 min 0,000 mm 0,6 UV-I 132 W/m 3,7 C 9,8 C 24,1 km/h (4 Bft) 98,29 %
28.01.2016 12:10 13,4 C 51 % 1024,3 hPa 0,0 l/m 16,6 km/h (3 Bft) W-SW 245 0 min 0,000 mm 0,6 UV-I 109 W/m 3,5 C 8,7 C 27,4 km/h (4 Bft) 99,13 %
28.01.2016 12:15 13,3 C 51 % 1024,3 hPa 0,0 l/m 12,0 km/h (2 Bft) W-SW 257 0 min 0,000 mm 0,7 UV-I 117 W/m 3,4 C 10,3 C 20,9 km/h (4 Bft) 98,29 %
28.01.2016 12:20 13,3 C 53 % 1024,4 hPa 0,0 l/m 9,6 km/h (2 Bft) W-SW 240 0 min 0,000 mm 0,7 UV-I 129 W/m 3,9 C 11,4 C 19,3 km/h (3 Bft) 98,31 %
28.01.2016 12:25 13,3 C 54 % 1024,4 hPa 0,0 l/m 9,1 km/h (2 Bft) SW 227 0 min 0,000 mm 0,7 UV-I 146 W/m 4,2 C 11,7 C 14,5 km/h (3 Bft) 99,17 %
28.01.2016 12:30 13,4 C 54 % 1024,3 hPa 0,0 l/m 10,3 km/h (2 Bft) SW 225 0 min 0,000 mm 0,7 UV-I 137 W/m 4,3 C 11,2 C 22,5 km/h (4 Bft) 99,17 %
28.01.2016 12:35 13,5 C 53 % 1024,3 hPa 0,0 l/m 13,5 km/h (3 Bft) W-SW 254 0 min 0,000 mm 0,6 UV-I 136 W/m 4,1 C 9,9 C 20,9 km/h (4 Bft) 99,15 %
28.01.2016 12:40 13,5 C 54 % 1024,3 hPa 0,0 l/m 10,7 km/h (2 Bft) SW 234 0 min 0,000 mm 0,7 UV-I 144 W/m 4,4 C 11,1 C 16,1 km/h (3 Bft) 100,00 %
28.01.2016 12:45 13,6 C 51 % 1024,2 hPa 0,0 l/m 14,7 km/h (3 Bft) W-SW 244 0 min 0,000 mm 0,6 UV-I 142 W/m 3,7 C 9,6 C 24,1 km/h (4 Bft) 99,17 %
28.01.2016 12:50 13,7 C 51 % 1024,1 hPa 0,0 l/m 12,7 km/h (3 Bft) W 261 0 min 0,000 mm 0,2 UV-I 104 W/m 3,8 C 10,5 C 20,9 km/h (4 Bft) 99,15 %
28.01.2016 12:55 13,5 C 51 % 1024,0 hPa 0,0 l/m 13,5 km/h (3 Bft) SW 235 0 min 0,000 mm 0,0 UV-I 67 W/m 3,6 C 9,9 C 20,9 km/h (4 Bft) 99,12 %
28.01.2016 13:00 13,4 C 51 % 1024,1 hPa 0,0 l/m 13,5 km/h (3 Bft) W-SW 249 0 min 0,127 mm 0,0 UV-I 67 W/m 3,5 C 9,8 C 22,5 km/h (4 Bft) 100,00 %
28.01.2016 13:05 13,4 C 50 % 1024,1 hPa 0,0 l/m 16,2 km/h (3 Bft) W 263 0 min 0,000 mm 0,0 UV-I 78 W/m 3,2 C 8,8 C 25,7 km/h (4 Bft) 100,00 %
28.01.2016 13:10 13,4 C 50 % 1024,1 hPa 0,0 l/m 13,6 km/h (3 Bft) W-SW 252 0 min 0,000 mm 0,0 UV-I 84 W/m 3,2 C 9,8 C 22,5 km/h (4 Bft) 99,12 %
28.01.2016 13:15 13,3 C 50 % 1024,1 hPa 0,0 l/m 11,6 km/h (2 Bft) W 277 0 min 0,000 mm 0,3 UV-I 107 W/m 3,1 C 10,5 C 17,7 km/h (3 Bft) 99,11 %
28.01.2016 13:20 13,4 C 50 % 1024,1 hPa 0,0 l/m 13,8 km/h (3 Bft) W 269 0 min 0,000 mm 0,6 UV-I 119 W/m 3,2 C 9,7 C 22,5 km/h (4 Bft) 99,19 %
28.01.2016 13:25 13,4 C 50 % 1024,0 hPa 0,0 l/m 12,5 km/h (3 Bft) W-SW 255 0 min 0,000 mm 0,4 UV-I 103 W/m 3,2 C 10,2 C 19,3 km/h (3 Bft) 99,15 %
28.01.2016 13:30 13,4 C 50 % 1024,1 hPa 0,0 l/m 12,9 km/h (3 Bft) W 270 0 min 0,000 mm 0,3 UV-I 101 W/m 3,2 C 10,1 C 24,1 km/h (4 Bft) 98,17 %
28.01.2016 13:35 13,6 C 50 % 1024,1 hPa 0,0 l/m 16,1 km/h (3 Bft) W-SW 250 0 min 0,000 mm 0,5 UV-I 99 W/m 3,4 C 9,1 C 25,7 km/h (4 Bft) 96,61 %
28.01.2016 13:40 13,6 C 50 % 1024,1 hPa 0,0 l/m 14,2 km/h (3 Bft) W 262 0 min 0,000 mm 0,1 UV-I 94 W/m 3,4 C 9,8 C 20,9 km/h (4 Bft) 96,67 %
28.01.2016 13:45 13,4 C 50 % 1024,1 hPa 0,0 l/m 10,6 km/h (2 Bft) W 271 0 min 0,000 mm 0,5 UV-I 107 W/m 3,2 C 11,1 C 19,3 km/h (3 Bft) 97,39 %
28.01.2016 13:50 13,4 C 50 % 1024,1 hPa 0,0 l/m 10,7 km/h (2 Bft) SW 221 0 min 0,000 mm 0,1 UV-I 92 W/m 3,2 C 11,0 C 16,1 km/h (3 Bft) 96,75 %
28.01.2016 13:55 13,3 C 51 % 1024,1 hPa 0,0 l/m 12,8 km/h (3 Bft) SW 227 0 min 0,000 mm 0,0 UV-I 80 W/m 3,4 C 10,0 C 19,3 km/h (3 Bft) 97,46 %
28.01.2016 14:00 13,3 C 52 % 1024,0 hPa 0,0 l/m 12,2 km/h (2 Bft) SW 226 0 min 0,127 mm 0,0 UV-I 111 W/m 3,7 C 10,2 C 20,9 km/h (4 Bft) 95,41 %
28.01.2016 14:05 13,3 C 52 % 1024,1 hPa 0,0 l/m 11,0 km/h (2 Bft) W-SW 252 0 min 0,000 mm 0,0 UV-I 122 W/m 3,7 C 10,8 C 17,7 km/h (3 Bft) 98,29 %
28.01.2016 14:10 13,3 C 52 % 1024,1 hPa 0,0 l/m 12,7 km/h (3 Bft) W 265 0 min 0,000 mm 0,0 UV-I 108 W/m 3,7 C 10,0 C 22,5 km/h (4 Bft) 98,39 %
28.01.2016 14:15 13,3 C 53 % 1024,2 hPa 0,0 l/m 11,2 km/h (2 Bft) W-NW 286 0 min 0,000 mm 0,0 UV-I 101 W/m 3,9 C 10,7 C 19,3 km/h (3 Bft) 99,11 %
28.01.2016 14:20 13,3 C 53 % 1024,1 hPa 0,0 l/m 10,5 km/h (2 Bft) SW 230 0 min 0,000 mm 0,0 UV-I 94 W/m 3,9 C 11,0 C 22,5 km/h (4 Bft) 98,25 %
28.01.2016 14:25 13,2 C 54 % 1024,2 hPa 0,0 l/m 11,8 km/h (2 Bft) W-SW 252 0 min 0,000 mm 0,0 UV-I 98 W/m 4,1 C 10,3 C 20,9 km/h (4 Bft) 98,43 %
28.01.2016 14:30 13,1 C 54 % 1024,3 hPa 0,0 l/m 9,4 km/h (2 Bft) W-SW 240 0 min 0,000 mm 0,0 UV-I 91 W/m 4,0 C 11,3 C 17,7 km/h (3 Bft) 99,06 %
28.01.2016 14:35 12,9 C 54 % 1024,3 hPa 0,0 l/m 10,2 km/h (2 Bft) W-SW 258 0 min 0,000 mm 0,0 UV-I 67 W/m 3,8 C 10,7 C 29,0 km/h (5 Bft) 97,50 %
28.01.2016 14:40 12,8 C 55 % 1024,4 hPa 0,0 l/m 10,4 km/h (2 Bft) W 264 0 min 0,000 mm 0,0 UV-I 73 W/m 4,0 C 10,5 C 19,3 km/h (3 Bft) 100,00 %
28.01.2016 14:45 12,8 C 56 % 1024,3 hPa 0,0 l/m 9,7 km/h (2 Bft) W 263 0 min 0,000 mm 0,0 UV-I 70 W/m 4,2 C 10,8 C 22,5 km/h (4 Bft) 100,00 %
28.01.2016 14:50 12,7 C 56 % 1024,4 hPa 0,0 l/m 12,3 km/h (3 Bft) W 267 0 min 0,000 mm 0,0 UV-I 69 W/m 4,2 C 9,5 C 17,7 km/h (3 Bft) 100,00 %
28.01.2016 14:55 12,6 C 57 % 1024,4 hPa 0,0 l/m 11,0 km/h (2 Bft) W-SW 254 0 min 0,000 mm 0,0 UV-I 71 W/m 4,3 C 10,0 C 19,3 km/h (3 Bft) 98,37 %
28.01.2016 15:00 12,5 C 57 % 1024,4 hPa 0,0 l/m 10,5 km/h (2 Bft) W 272 0 min 0,102 mm 0,0 UV-I 64 W/m 4,2 C 10,1 C 19,3 km/h (3 Bft) 97,27 %
28.01.2016 15:05 12,5 C 58 % 1024,4 hPa 0,0 l/m 13,6 km/h (3 Bft) W-SW 256 0 min 0,000 mm 0,0 UV-I 70 W/m 4,5 C 8,7 C 22,5 km/h (4 Bft) 100,00 %
28.01.2016 15:10 12,4 C 58 % 1024,4 hPa 0,0 l/m 12,7 km/h (3 Bft) W 259 0 min 0,000 mm 0,0 UV-I 75 W/m 4,4 C 9,0 C 20,9 km/h (4 Bft) 100,00 %
28.01.2016 15:15 12,4 C 59 % 1024,6 hPa 0,0 l/m 11,1 km/h (2 Bft) W 273 0 min 0,000 mm 0,0 UV-I 65 W/m 4,6 C 9,7 C 17,7 km/h (3 Bft) 100,00 %
28.01.2016 15:20 12,2 C 60 % 1024,7 hPa 0,0 l/m 7,4 km/h (2 Bft) W 260 0 min 0,000 mm 0,0 UV-I 56 W/m 4,7 C 11,5 C 17,7 km/h (3 Bft) 100,00 %
28.01.2016 15:25 12,2 C 60 % 1024,8 hPa 0,0 l/m 9,3 km/h (2 Bft) W 270 0 min 0,000 mm 0,0 UV-I 51 W/m 4,7 C 10,4 C 17,7 km/h (3 Bft) 98,41 %
28.01.2016 15:30 12,1 C 61 % 1024,7 hPa 0,0 l/m 8,8 km/h (2 Bft) W 275 0 min 0,000 mm 0,0 UV-I 45 W/m 4,8 C 10,6 C 20,9 km/h (4 Bft) 97,46 %
28.01.2016 15:35 12,1 C 61 % 1024,8 hPa 0,0 l/m 10,7 km/h (2 Bft) W 262 0 min 0,000 mm 0,0 UV-I 44 W/m 4,8 C 9,6 C 17,7 km/h (3 Bft) 96,43 %
28.01.2016 15:40 12,0 C 61 % 1024,9 hPa 0,0 l/m 9,9 km/h (2 Bft) W-NW 292 0 min 0,000 mm 0,0 UV-I 42 W/m 4,7 C 9,9 C 17,7 km/h (3 Bft) 95,50 %
28.01.2016 15:45 11,9 C 62 % 1024,9 hPa 0,0 l/m 10,8 km/h (2 Bft) W-NW 287 0 min 0,000 mm 0,0 UV-I 37 W/m 4,9 C 9,3 C 17,7 km/h (3 Bft) 98,39 %
28.01.2016 15:50 11,9 C 62 % 1025,0 hPa 0,0 l/m 10,3 km/h (2 Bft) W 259 0 min 0,000 mm 0,0 UV-I 31 W/m 4,9 C 9,5 C 24,1 km/h (4 Bft) 97,25 %
28.01.2016 15:55 11,8 C 62 % 1025,1 hPa 0,0 l/m 11,3 km/h (2 Bft) W 271 0 min 0,000 mm 0,0 UV-I 28 W/m 4,8 C 8,9 C 20,9 km/h (4 Bft) 96,83 %
28.01.2016 16:00 11,8 C 62 % 1025,1 hPa 0,0 l/m 12,0 km/h (2 Bft) W 269 0 min 0,076 mm 0,0 UV-I 25 W/m 4,8 C 8,6 C 20,9 km/h (4 Bft) 97,39 %
28.01.2016 16:05 11,7 C 64 % 1025,2 hPa 0,0 l/m 6,5 km/h (2 Bft) W 272 0 min 0,000 mm 0,0 UV-I 21 W/m 5,1 C 11,7 C 11,3 km/h (2 Bft) 98,25 %
28.01.2016 16:10 11,5 C 64 % 1025,2 hPa 0,0 l/m 8,0 km/h (2 Bft) W 275 0 min 0,000 mm 0,0 UV-I 18 W/m 4,9 C 10,4 C 19,3 km/h (3 Bft) 99,17 %
28.01.2016 16:15 11,4 C 64 % 1025,3 hPa 0,0 l/m 9,6 km/h (2 Bft) W 281 0 min 0,000 mm 0,0 UV-I 13 W/m 4,8 C 9,4 C 19,3 km/h (3 Bft) 99,15 %
28.01.2016 16:20 11,4 C 65 % 1025,2 hPa 0,0 l/m 8,3 km/h (2 Bft) W-SW 258 0 min 0,000 mm 0,0 UV-I 12 W/m 5,1 C 10,1 C 14,5 km/h (3 Bft) 97,14 %
28.01.2016 16:30 11,1 C 67 % 1025,4 hPa 0,0 l/m 7,8 km/h (2 Bft) W-NW 284 0 min 0,000 mm 0,0 UV-I 7 W/m 5,2 C 10,1 C 16,1 km/h (3 Bft) 98,74 %
28.01.2016 16:35 10,9 C 68 % 1025,5 hPa 0,0 l/m 7,6 km/h (2 Bft) W 271 0 min 0,000 mm 0,0 UV-I 6 W/m 5,2 C 10,1 C 14,5 km/h (3 Bft) 100,00 %
28.01.2016 16:40 10,9 C 69 % 1025,5 hPa 0,0 l/m 8,6 km/h (2 Bft) W 269 0 min 0,000 mm 0,0 UV-I 5 W/m 5,4 C 9,4 C 16,1 km/h (3 Bft) 98,39 %
28.01.2016 16:45 10,8 C 70 % 1025,6 hPa 0,0 l/m 9,7 km/h (2 Bft) W 264 0 min 0,000 mm 0,0 UV-I 5 W/m 5,6 C 8,6 C 16,1 km/h (3 Bft) 99,10 %
28.01.2016 16:50 10,7 C 70 % 1025,6 hPa 0,0 l/m 7,3 km/h (2 Bft) W 263 0 min 0,000 mm 0,0 UV-I 0 W/m 5,5 C 10,1 C 16,1 km/h (3 Bft) 100,00 %
28.01.2016 16:55 10,6 C 71 % 1025,6 hPa 0,0 l/m 9,8 km/h (2 Bft) W 269 0 min 0,000 mm 0,0 UV-I 0 W/m 5,6 C 8,4 C 19,3 km/h (3 Bft) 100,00 %
28.01.2016 17:00 10,5 C 72 % 1025,7 hPa 0,0 l/m 8,3 km/h (2 Bft) W 269 0 min 0,051 mm 0,0 UV-I 0 W/m 5,7 C 9,2 C 14,5 km/h (3 Bft) 99,15 %
28.01.2016 17:05 10,4 C 73 % 1025,8 hPa 0,0 l/m 8,0 km/h (2 Bft) W-NW 284 0 min 0,000 mm 0,0 UV-I 0 W/m 5,8 C 9,3 C 14,5 km/h (3 Bft) 99,15 %
28.01.2016 17:10 10,4 C 73 % 1025,8 hPa 0,0 l/m 7,5 km/h (2 Bft) W 269 0 min 0,000 mm 0,0 UV-I 0 W/m 5,8 C 9,6 C 14,5 km/h (3 Bft) 99,21 %
28.01.2016 17:15 10,2 C 74 % 1025,8 hPa 0,0 l/m 5,7 km/h (1 Bft) W 269 0 min 0,000 mm 0,0 UV-I 0 W/m 5,8 C 10,2 C 12,9 km/h (3 Bft) 99,15 %
28.01.2016 17:20 10,2 C 74 % 1025,8 hPa 0,0 l/m 8,5 km/h (2 Bft) W 277 0 min 0,000 mm 0,0 UV-I 0 W/m 5,8 C 8,7 C 14,5 km/h (3 Bft) 99,06 %
28.01.2016 17:25 10,2 C 74 % 1025,8 hPa 0,0 l/m 8,3 km/h (2 Bft) W 281 0 min 0,000 mm 0,0 UV-I 0 W/m 5,8 C 8,9 C 16,1 km/h (3 Bft) 100,00 %
28.01.2016 17:30 10,2 C 75 % 1025,8 hPa 0,0 l/m 7,1 km/h (2 Bft) W 267 0 min 0,000 mm 0,0 UV-I 0 W/m 6,0 C 9,7 C 16,1 km/h (3 Bft) 99,15 %
28.01.2016 17:35 10,1 C 75 % 1025,8 hPa 0,0 l/m 6,5 km/h (2 Bft) W-SW 246 0 min 0,000 mm 0,0 UV-I 0 W/m 5,9 C 10,1 C 16,1 km/h (3 Bft) 99,13 %
28.01.2016 17:40 9,9 C 76 % 1025,8 hPa 0,0 l/m 4,3 km/h (1 Bft) W 271 0 min 0,000 mm 0,0 UV-I 0 W/m 5,9 C 9,9 C 9,7 km/h (2 Bft) 96,67 %
28.01.2016 17:45 9,8 C 77 % 1025,9 hPa 0,0 l/m 5,6 km/h (1 Bft) W 270 0 min 0,000 mm 0,0 UV-I 0 W/m 6,0 C 9,8 C 11,3 km/h (2 Bft) 98,26 %
28.01.2016 17:50 9,7 C 78 % 1025,9 hPa 0,0 l/m 3,1 km/h (1 Bft) W 266 0 min 0,000 mm 0,0 UV-I 0 W/m 6,1 C 9,7 C 6,4 km/h (2 Bft) 93,16 %
28.01.2016 17:55 9,6 C 78 % 1026,0 hPa 0,0 l/m 3,5 km/h (1 Bft) W 279 0 min 0,000 mm 0,0 UV-I 0 W/m 6,0 C 9,6 C 11,3 km/h (2 Bft) 96,23 %
28.01.2016 18:00 9,4 C 79 % 1026,0 hPa 0,0 l/m 3,8 km/h (1 Bft) W-NW 296 0 min 0,025 mm 0,0 UV-I 0 W/m 5,9 C 9,4 C 11,3 km/h (2 Bft) 97,58 %
28.01.2016 18:05 9,4 C 79 % 1026,1 hPa 0,0 l/m 3,7 km/h (1 Bft) W 277 0 min 0,000 mm 0,0 UV-I 0 W/m 5,9 C 9,4 C 9,7 km/h (2 Bft) 94,87 %
28.01.2016 18:10 9,4 C 80 % 1026,1 hPa 0,0 l/m 5,3 km/h (1 Bft) W-NW 288 0 min 0,000 mm 0,0 UV-I 0 W/m 6,1 C 9,4 C 12,9 km/h (3 Bft) 98,31 %
28.01.2016 18:15 9,4 C 80 % 1026,2 hPa 0,0 l/m 4,2 km/h (1 Bft) NW 309 0 min 0,000 mm 0,0 UV-I 0 W/m 6,1 C 9,4 C 11,3 km/h (2 Bft) 99,11 %
28.01.2016 18:20 9,3 C 80 % 1026,2 hPa 0,0 l/m 5,0 km/h (1 Bft) W 274 0 min 0,000 mm 0,0 UV-I 0 W/m 6,0 C 9,3 C 12,9 km/h (3 Bft) 100,00 %
28.01.2016 18:25 9,3 C 80 % 1026,2 hPa 0,0 l/m 5,5 km/h (1 Bft) W 273 0 min 0,000 mm 0,0 UV-I 0 W/m 6,0 C 9,3 C 12,9 km/h (3 Bft) 98,35 %
28.01.2016 18:30 9,3 C 81 % 1026,2 hPa 0,0 l/m 4,2 km/h (1 Bft) W 272 0 min 0,000 mm 0,0 UV-I 0 W/m 6,2 C 9,3 C 9,7 km/h (2 Bft) 100,00 %
28.01.2016 18:35 9,3 C 81 % 1026,3 hPa 0,0 l/m 5,4 km/h (1 Bft) W-NW 294 0 min 0,000 mm 0,0 UV-I 0 W/m 6,2 C 9,3 C 12,9 km/h (3 Bft) 99,17 %
28.01.2016 18:40 9,3 C 81 % 1026,3 hPa 0,0 l/m 7,3 km/h (2 Bft) NW 326 0 min 0,000 mm 0,0 UV-I 0 W/m 6,2 C 8,6 C 17,7 km/h (3 Bft) 99,17 %
28.01.2016 18:45 9,3 C 81 % 1026,3 hPa 0,0 l/m 7,7 km/h (2 Bft) W 267 0 min 0,000 mm 0,0 UV-I 0 W/m 6,2 C 8,3 C 14,5 km/h (3 Bft) 98,15 %
28.01.2016 18:50 9,3 C 81 % 1026,3 hPa 0,0 l/m 6,9 km/h (2 Bft) W-SW 244 0 min 0,000 mm 0,0 UV-I 0 W/m 6,2 C 8,9 C 14,5 km/h (3 Bft) 99,17 %
28.01.2016 18:55 9,3 C 81 % 1026,4 hPa 0,0 l/m 8,2 km/h (2 Bft) W-SW 257 0 min 0,000 mm 0,0 UV-I 0 W/m 6,2 C 8,0 C 12,9 km/h (3 Bft) 100,00 %
28.01.2016 19:00 9,2 C 82 % 1026,4 hPa 0,0 l/m 6,9 km/h (2 Bft) W 265 0 min 0,025 mm 0,0 UV-I 0 W/m 6,3 C 8,8 C 11,3 km/h (2 Bft) 100,00 %
28.01.2016 19:05 9,1 C 82 % 1026,5 hPa 0,0 l/m 6,4 km/h (2 Bft) W-SW 254 0 min 0,000 mm 0,0 UV-I 0 W/m 6,2 C 9,1 C 12,9 km/h (3 Bft) 99,17 %
28.01.2016 19:10 9,0 C 83 % 1026,5 hPa 0,0 l/m 5,6 km/h (1 Bft) W-SW 251 0 min 0,000 mm 0,0 UV-I 0 W/m 6,3 C 9,0 C 8,0 km/h (2 Bft) 100,00 %
28.01.2016 19:15 8,8 C 84 % 1026,7 hPa 0,0 l/m 5,3 km/h (1 Bft) SW 221 0 min 0,000 mm 0,0 UV-I 0 W/m 6,2 C 8,8 C 8,0 km/h (2 Bft) 100,00 %
28.01.2016 19:20 8,6 C 85 % 1026,6 hPa 0,0 l/m 5,2 km/h (1 Bft) S-SW 209 0 min 0,000 mm 0,0 UV-I 0 W/m 6,2 C 8,6 C 9,7 km/h (2 Bft) 98,39 %
28.01.2016 19:25 8,4 C 86 % 1026,7 hPa 0,0 l/m 5,6 km/h (1 Bft) W-SW 254 0 min 0,000 mm 0,0 UV-I 0 W/m 6,2 C 8,4 C 8,0 km/h (2 Bft) 97,30 %
28.01.2016 19:30 8,4 C 87 % 1026,8 hPa 0,0 l/m 4,6 km/h (1 Bft) W-SW 257 0 min 0,000 mm 0,0 UV-I 0 W/m 6,4 C 8,4 C 8,0 km/h (2 Bft) 99,19 %
28.01.2016 19:35 8,4 C 87 % 1026,8 hPa 0,0 l/m 4,2 km/h (1 Bft) W-SW 253 0 min 0,000 mm 0,0 UV-I 0 W/m 6,4 C 8,4 C 6,4 km/h (2 Bft) 99,08 %
28.01.2016 19:40 8,3 C 87 % 1026,9 hPa 0,0 l/m 2,9 km/h (1 Bft) W-SW 252 0 min 0,000 mm 0,0 UV-I 0 W/m 6,3 C 8,3 C 4,8 km/h (1 Bft) 99,19 %
28.01.2016 19:45 8,2 C 88 % 1026,9 hPa 0,0 l/m 3,2 km/h (1 Bft) W-SW 248 0 min 0,000 mm 0,0 UV-I 0 W/m 6,3 C 8,2 C 4,8 km/h (1 Bft) 97,32 %
28.01.2016 19:50 8,1 C 89 % 1026,9 hPa 0,0 l/m 3,3 km/h (1 Bft) SW 231 0 min 0,000 mm 0,0 UV-I 0 W/m 6,4 C 8,1 C 4,8 km/h (1 Bft) 95,93 %
28.01.2016 19:55 8,1 C 89 % 1027,0 hPa 0,0 l/m 3,2 km/h (1 Bft) SW 231 0 min 0,000 mm 0,0 UV-I 0 W/m 6,4 C 8,1 C 6,4 km/h (2 Bft) 97,25 %
28.01.2016 20:00 8,1 C 90 % 1027,0 hPa 0,2 l/m 3,2 km/h (1 Bft) SW 231 0 min 0,000 mm 0,0 UV-I 0 W/m 6,6 C 8,1 C 4,8 km/h (1 Bft) 95,97 %
28.01.2016 20:05 7,9 C 90 % 1027,0 hPa 0,0 l/m 3,1 km/h (1 Bft) W 267 0 min 0,000 mm 0,0 UV-I 0 W/m 6,4 C 7,9 C 4,8 km/h (1 Bft) 96,40 %
28.01.2016 20:10 7,9 C 91 % 1027,0 hPa 0,0 l/m 3,2 km/h (1 Bft) W 272 0 min 0,000 mm 0,0 UV-I 0 W/m 6,5 C 7,9 C 4,8 km/h (1 Bft) 96,12 %
28.01.2016 20:15 7,9 C 92 % 1027,0 hPa 0,0 l/m 3,0 km/h (1 Bft) W 272 0 min 0,000 mm 0,0 UV-I 0 W/m 6,7 C 7,9 C 4,8 km/h (1 Bft) 97,84 %
28.01.2016 20:20 7,8 C 92 % 1027,0 hPa 0,0 l/m 2,1 km/h (1 Bft) W 272 0 min 0,000 mm 0,0 UV-I 0 W/m 6,6 C 7,8 C 3,2 km/h (1 Bft) 98,15 %
28.01.2016 20:25 7,7 C 93 % 1027,0 hPa 0,0 l/m 1,9 km/h (1 Bft) W 272 0 min 0,000 mm 0,0 UV-I 0 W/m 6,6 C 7,7 C 4,8 km/h (1 Bft) 100,00 %
28.01.2016 20:30 7,5 C 93 % 1027,0 hPa 0,2 l/m 1,9 km/h (1 Bft) W 272 0 min 0,000 mm 0,0 UV-I 0 W/m 6,4 C 7,5 C 3,2 km/h (1 Bft) 98,21 %
28.01.2016 20:35 7,4 C 94 % 1027,0 hPa 0,0 l/m 1,7 km/h (1 Bft) W 272 0 min 0,000 mm 0,0 UV-I 0 W/m 6,5 C 7,4 C 3,2 km/h (1 Bft) 100,00 %
28.01.2016 20:40 7,3 C 95 % 1026,9 hPa 0,0 l/m 1,5 km/h (1 Bft) W 272 0 min 0,000 mm 0,0 UV-I 0 W/m 6,6 C 7,3 C 3,2 km/h (1 Bft) 100,00 %
28.01.2016 20:45 7,3 C 95 % 1026,9 hPa 0,0 l/m 2,6 km/h (1 Bft) W 273 0 min 0,000 mm 0,0 UV-I 0 W/m 6,6 C 7,3 C 3,2 km/h (1 Bft) 99,10 %
28.01.2016 20:50 7,2 C 95 % 1027,0 hPa 0,0 l/m 2,9 km/h (1 Bft) W 273 0 min 0,000 mm 0,0 UV-I 0 W/m 6,5 C 7,2 C 4,8 km/h (1 Bft) 99,17 %
28.01.2016 20:55 7,2 C 95 % 1027,0 hPa 0,2 l/m 2,9 km/h (1 Bft) W 273 0 min 0,000 mm 0,0 UV-I 0 W/m 6,5 C 7,2 C 4,8 km/h (1 Bft) 99,15 %
28.01.2016 21:00 7,2 C 96 % 1026,9 hPa 0,0 l/m 3,2 km/h (1 Bft) W 273 0 min 0,000 mm 0,0 UV-I 0 W/m 6,6 C 7,2 C 4,8 km/h (1 Bft) 99,10 %
28.01.2016 21:05 7,2 C 96 % 1026,9 hPa 0,0 l/m 3,5 km/h (1 Bft) W 273 0 min 0,000 mm 0,0 UV-I 0 W/m 6,6 C 7,2 C 4,8 km/h (1 Bft) 99,17 %
28.01.2016 21:10 7,2 C 96 % 1026,9 hPa 0,0 l/m 3,4 km/h (1 Bft) W 272 0 min 0,000 mm 0,0 UV-I 0 W/m 6,6 C 7,2 C 4,8 km/h (1 Bft) 100,00 %
28.01.2016 21:15 7,2 C 96 % 1026,9 hPa 0,0 l/m 4,0 km/h (1 Bft) W 261 0 min 0,000 mm 0,0 UV-I 0 W/m 6,6 C 7,2 C 4,8 km/h (1 Bft) 98,33 %
28.01.2016 21:20 7,2 C 96 % 1026,9 hPa 0,2 l/m 3,7 km/h (1 Bft) W 261 0 min 0,000 mm 0,0 UV-I 0 W/m 6,6 C 7,2 C 6,4 km/h (2 Bft) 100,00 %
28.01.2016 21:25 7,1 C 96 % 1026,9 hPa 0,0 l/m 2,9 km/h (1 Bft) W 260 0 min 0,000 mm 0,0 UV-I 0 W/m 6,5 C 7,1 C 4,8 km/h (1 Bft) 99,17 %
28.01.2016 21:30 7,0 C 96 % 1026,9 hPa 0,0 l/m 2,5 km/h (1 Bft) W-SW 258 0 min 0,000 mm 0,0 UV-I 0 W/m 6,4 C 7,0 C 4,8 km/h (1 Bft) 99,19 %
28.01.2016 21:35 6,9 C 96 % 1026,8 hPa 0,0 l/m 2,3 km/h (1 Bft) W-SW 258 0 min 0,000 mm 0,0 UV-I 0 W/m 6,3 C 6,9 C 4,8 km/h (1 Bft) 100,00 %
28.01.2016 21:40 6,8 C 96 % 1026,8 hPa 0,0 l/m 2,2 km/h (1 Bft) W-SW 258 0 min 0,000 mm 0,0 UV-I 0 W/m 6,2 C 6,8 C 4,8 km/h (1 Bft) 100,00 %
28.01.2016 21:45 6,9 C 96 % 1026,7 hPa 0,2 l/m 1,9 km/h (1 Bft) W-SW 258 0 min 0,000 mm 0,0 UV-I 0 W/m 6,3 C 6,9 C 3,2 km/h (1 Bft) 99,11 %
28.01.2016 21:50 6,8 C 96 % 1026,8 hPa 0,0 l/m 2,2 km/h (1 Bft) W-SW 258 0 min 0,000 mm 0,0 UV-I 0 W/m 6,2 C 6,8 C 4,8 km/h (1 Bft) 98,35 %
28.01.2016 21:55 6,7 C 97 % 1026,7 hPa 0,0 l/m 2,5 km/h (1 Bft) W-SW 258 0 min 0,000 mm 0,0 UV-I 0 W/m 6,3 C 6,7 C 4,8 km/h (1 Bft) 97,30 %
28.01.2016 22:00 6,7 C 97 % 1026,6 hPa 0,0 l/m 1,7 km/h (1 Bft) W 268 0 min 0,000 mm 0,0 UV-I 0 W/m 6,3 C 6,7 C 4,8 km/h (1 Bft) 98,31 %
28.01.2016 22:05 6,7 C 97 % 1026,7 hPa 0,0 l/m 0,3 km/h (0 Bft) W 268 0 min 0,000 mm 0,0 UV-I 0 W/m 6,3 C 6,7 C 1,6 km/h (1 Bft) 96,67 %
28.01.2016 22:10 6,6 C 97 % 1026,8 hPa 0,0 l/m 0,1 km/h (0 Bft) W 268 0 min 0,000 mm 0,0 UV-I 0 W/m 6,2 C 6,6 C 1,6 km/h (1 Bft) 97,32 %
28.01.2016 22:15 6,6 C 97 % 1026,8 hPa 0,0 l/m 0,2 km/h (0 Bft) W 268 0 min 0,000 mm 0,0 UV-I 0 W/m 6,2 C 6,6 C 3,2 km/h (1 Bft) 96,85 %
28.01.2016 22:20 6,6 C 97 % 1026,7 hPa 0,0 l/m 1,2 km/h (1 Bft) W-NW 296 0 min 0,000 mm 0,0 UV-I 0 W/m 6,2 C 6,6 C 4,8 km/h (1 Bft) 97,44 %
28.01.2016 22:25 6,6 C 97 % 1026,7 hPa 0,0 l/m 0,7 km/h (0 Bft) W 277 0 min 0,000 mm 0,0 UV-I 0 W/m 6,2 C 6,6 C 3,2 km/h (1 Bft) 96,43 %
28.01.2016 22:30 6,7 C 97 % 1026,7 hPa 0,0 l/m 0,7 km/h (0 Bft) W 277 0 min 0,000 mm 0,0 UV-I 0 W/m 6,3 C 6,7 C 1,6 km/h (1 Bft) 98,46 %
28.01.2016 22:40 6,6 C 97 % 1026,8 hPa 0,0 l/m 1,9 km/h (1 Bft) W-NW 299 0 min 0,000 mm 0,0 UV-I 0 W/m 6,2 C 6,6 C 3,2 km/h (1 Bft) 99,65 %
28.01.2016 22:45 6,6 C 97 % 1026,8 hPa 0,0 l/m 1,4 km/h (1 Bft) NW 304 0 min 0,000 mm 0,0 UV-I 0 W/m 6,2 C 6,6 C 3,2 km/h (1 Bft) 100,00 %
28.01.2016 22:50 6,6 C 97 % 1026,8 hPa 0,0 l/m 1,5 km/h (1 Bft) W-NW 302 0 min 0,000 mm 0,0 UV-I 0 W/m 6,2 C 6,6 C 3,2 km/h (1 Bft) 100,00 %
28.01.2016 22:55 6,7 C 97 % 1026,8 hPa 0,0 l/m 2,6 km/h (1 Bft) W-NW 293 0 min 0,000 mm 0,0 UV-I 0 W/m 6,3 C 6,7 C 4,8 km/h (1 Bft) 100,00 %
28.01.2016 23:00 6,7 C 97 % 1026,9 hPa 0,0 l/m 1,4 km/h (1 Bft) W-NW 292 0 min 0,000 mm 0,0 UV-I 0 W/m 6,3 C 6,7 C 3,2 km/h (1 Bft) 99,12 %
28.01.2016 23:05 6,7 C 97 % 1027,0 hPa 0,0 l/m 1,7 km/h (1 Bft) W-NW 292 0 min 0,000 mm 0,0 UV-I 0 W/m 6,3 C 6,7 C 4,8 km/h (1 Bft) 100,00 %
28.01.2016 23:10 6,7 C 97 % 1027,0 hPa 0,0 l/m 2,0 km/h (1 Bft) W-NW 292 0 min 0,000 mm 0,0 UV-I 0 W/m 6,3 C 6,7 C 3,2 km/h (1 Bft) 100,00 %
28.01.2016 23:15 6,6 C 97 % 1027,0 hPa 0,2 l/m 1,3 km/h (1 Bft) W-NW 292 0 min 0,000 mm 0,0 UV-I 0 W/m 6,2 C 6,6 C 3,2 km/h (1 Bft) 98,29 %
28.01.2016 23:20 6,6 C 97 % 1027,0 hPa 0,0 l/m 0,3 km/h (0 Bft) W-NW 292 0 min 0,000 mm 0,0 UV-I 0 W/m 6,2 C 6,6 C 1,6 km/h (1 Bft) 99,17 %
28.01.2016 23:25 6,6 C 97 % 1027,0 hPa 0,0 l/m 1,3 km/h (1 Bft) W-NW 292 0 min 0,000 mm 0,0 UV-I 0 W/m 6,2 C 6,6 C 3,2 km/h (1 Bft) 100,00 %
28.01.2016 23:30 6,6 C 97 % 1026,9 hPa 0,0 l/m 0,9 km/h (0 Bft) W-NW 292 0 min 0,000 mm 0,0 UV-I 0 W/m 6,2 C 6,6 C 3,2 km/h (1 Bft) 100,00 %
28.01.2016 23:35 6,5 C 97 % 1026,9 hPa 0,2 l/m 0,5 km/h (0 Bft) W-NW 292 0 min 0,000 mm 0,0 UV-I 0 W/m 6,1 C 6,5 C 3,2 km/h (1 Bft) 99,17 %
28.01.2016 23:40 6,5 C 97 % 1026,9 hPa 0,0 l/m 1,3 km/h (1 Bft) W-NW 292 0 min 0,000 mm 0,0 UV-I 0 W/m 6,1 C 6,5 C 3,2 km/h (1 Bft) 100,00 %
28.01.2016 23:45 6,5 C 97 % 1026,8 hPa 0,0 l/m 1,0 km/h (0 Bft) W 261 0 min 0,000 mm 0,0 UV-I 0 W/m 6,1 C 6,5 C 3,2 km/h (1 Bft) 99,23 %
28.01.2016 23:50 6,4 C 97 % 1026,9 hPa 0,0 l/m 1,6 km/h (1 Bft) W 260 0 min 0,000 mm 0,0 UV-I 0 W/m 6,0 C 6,4 C 3,2 km/h (1 Bft) 98,21 %
28.01.2016 23:55 6,4 C 97 % 1026,9 hPa 0,0 l/m 2,1 km/h (1 Bft) W 260 0 min 0,000 mm 0,0 UV-I 0 W/m 6,0 C 6,4 C 3,2 km/h (1 Bft) 97,37 %
_ Min-Zeit 04:55 13:05 04:45 - 03:55 - - - - - - 04:55 07:20 03:55 17:50
Minimum _ 1,1 C 50 % 1020,9 hPa - 0,0 km/h (0 Bft) - - - - - - 0,8 C 0,8 C 0,0 km/h (0 Bft) 93,16 %
_ Max-Zeit 12:45 00:00 19:55 20:00 08:20 - - 00:00 12:00 11:15 11:20 20:15 12:25 08:25 00:00
Maximum _ 13,7 C 99 % 1027,0 hPa 0,2 l/m 17,4 km/h
SW (3 Bft)
- - 0 min 0,127 mm 0,8 UV-I 179 W/m 6,7 C 11,7 C 29,0 km/h
S (5 Bft)
100,00 %
Durchschnitt _ 7,7 C 81 % 1024,0 hPa #1,4 l/m 6,2 km/h (2 Bft) W - #0 min. #0,914 mm 0,6 UV-I 74 W/m 4,1 C 6,4 C 11,4 km/h (2 Bft) 98,51 %